Location: Newark
(42.8481°N, 0.4872°E)
Time: 08:28:35
(UTC+00:00)

Vanguard 2 - Pass Details

Date: 03 November 2020
Orbit: 554 x 2937 km, 32.9° (Epoch: 26 November)

Event Time Altitude Azimuth Distance (km) Brightness Sun altitude
Rises 15:31:28 0° 190° (S) 3,894 11.9 11.6°
Reaches altitude 10° 15:35:11 10° 169° (S) 3,329 11.1 11.0°
Maximum altitude 15:40:04 16° 134° (SE) 3,362 10.7 10.2°
Drops below altitude 10° 15:46:14 10° 102° (ESE) 4,427 11.0 9.3°
Sets 15:52:31 0° 85° (E) 5,944 11.5 8.3°
